Location: Krakow
(50.0830°N, 19.9170°E)
Time: 07:36:09
(UTC+02:00)

Tiros 1 despin weight - Pass Details

Date: 20 March 2026
Orbit: 555 x 592 km, 48.2° (Epoch: 18 April)

Event Time Altitude Azimuth Distance (km) Brightness Sun altitude
Rises 04:16:24 0° 245° (WSW) 2,817 - -14.6°
Reaches altitude 10° 04:18:43 10° 241° (WSW) 1,915 - -14.2°
Exits shadow 04:20:19 21° 234° (SW) 1,324 ? -14.0°
Maximum altitude 04:23:00 54° 164° (SSE) 719 ? -13.6°
Drops below altitude 10° 04:27:15 10° 88° (E) 1,904 ? -12.9°
Sets 04:29:33 0° 83° (E) 2,799 ? -12.6°
